Starlink 6380

operational
NORAD ID: 57344 Int'l Des: 2023-099 Owner: SPXS Country: US Constellation: starlink
LEOCIRCULAR

Starlink 6380について

説明を読み込み中...

リアルタイム位置

3D地球を読み込み中...

次回通過

高度履歴

Altitude vs Time

uPlot chart will show altitude changes over time

軌道要素

1 57344U 23099S 26033.48927664 .00001659 00000-0 13792-3 0 9992
2 57344 43.0036 80.0559 0001242 261.6130 98.4572 15.02523809140821
Epoch: Feb 2, 2026 • Age: 15 hours

現在のステータス

高度 563.9 km
速度 7.58 km/s
衛星直下点 -22.66°S, 103.95°E
打ち上げ日 Jul 16, 2023
運用期間 2.5 years
タイプ internet

技術仕様

分類 Payload
質量 305.00 kg
乾燥質量 290.00 kg
総質量 305.00 kg
長さ 0.20 m
直径 2.80 m
スパン 9.00 m
形状 Box + pan
製造者 SPXS
バスタイプ Starlink
フェーズステータス In Orbit
所有者/国 SPXS/US

大規模コンステレーション

Loading constellations...